| time (UTC) | temp F | wind direction | speed MPH | gust MPH | rain 1hr in | rain 24hr in | rain mn in | humidity % | barometer mb |
| 20260504050422 | 54 | 360 | 2.0 | 6.0 | 0.00 | 0.00 | 0.00 | 69 | 1007.4 |
| 20260504045921 | 54 | 360 | 2.0 | 8.0 | 0.00 | 0.00 | 0.00 | 69 | 1007.3 |
| 20260504045421 | 54 | 360 | 4.0 | 8.0 | 0.00 | 0.00 | 0.00 | 69 | 1007.4 |
| 20260504044919 | 54 | 360 | 2.0 | 5.0 | 0.00 | 0.00 | 0.00 | 69 | 1007.3 |
| 20260504044418 | 54 | 360 | 2.0 | 5.0 | 0.00 | 0.00 | 0.00 | 69 | 1007.3 |
| 20260504043920 | 54 | 360 | 2.0 | 5.0 | 0.00 | 0.00 | 0.00 | 69 | 1007.3 |
| 20260504043417 | 54 | 360 | 2.0 | 4.0 | 0.00 | 0.00 | 0.00 | 69 | 1007.2 |
| 20260504042916 | 54 | 360 | 3.0 | 4.0 | 0.00 | 0.00 | 0.00 | 70 | 1007.3 |
| 20260504042435 | 54 | 360 | 2.0 | 5.0 | 0.00 | 0.00 | 0.00 | 70 | 1007.3 |
| 20260504041951 | 53 | 360 | 2.0 | 5.0 | 0.00 | 0.00 | 0.00 | 70 | 1007.4 |
| 20260504041413 | 53 | 360 | 1.0 | 9.0 | 0.00 | 0.00 | 0.00 | 70 | 1007.3 |
| 20260504040928 | 53 | 360 | 3.0 | 9.0 | 0.00 | 0.00 | 0.00 | 70 | 1007.2 |
| 20260504040413 | 53 | 360 | 2.0 | 5.0 | 0.00 | 0.00 | 0.00 | 70 | 1007.4 |
| 20260504035929 | 53 | 360 | 2.0 | 5.0 | 0.00 | 0.00 | 0.00 | 70 | 1007.4 |
| 20260504035427 | 53 | 360 | 2.0 | 5.0 | 0.00 | 0.00 | 0.00 | 70 | 1007.5 |
| 20260504034926 | 53 | 360 | 0.0 | 4.0 | 0.00 | 0.00 | 0.00 | 70 | 1007.6 |
| 20260504034424 | 53 | 360 | 0.0 | 5.0 | 0.00 | 0.00 | 0.00 | 70 | 1007.7 |
| 20260504033945 | 53 | 360 | 0.0 | 5.0 | 0.00 | 0.00 | 0.00 | 70 | 1007.6 |
| 20260504033425 | 53 | 360 | 1.0 | 5.0 | 0.00 | 0.00 | 0.00 | 71 | 1007.6 |
| 20260504032925 | 53 | 360 | 0.0 | 3.0 | 0.00 | 0.00 | 0.00 | 71 | 1007.7 |
| 20260504032425 | 53 | 360 | 1.0 | 4.0 | 0.00 | 0.00 | 0.00 | 71 | 1007.7 |
| 20260504031927 | 53 | 360 | 0.0 | 5.0 | 0.00 | 0.00 | 0.00 | 71 | 1007.7 |
| 20260504031424 | 53 | 360 | 1.0 | 5.0 | 0.00 | 0.00 | 0.00 | 71 | 1007.7 |
| 20260504030924 | 53 | 360 | 2.0 | 5.0 | 0.00 | 0.00 | 0.00 | 71 | 1007.7 |
| 20260504030424 | 53 | 360 | 2.0 | 4.0 | 0.00 | 0.00 | 0.00 | 72 | 1007.6 |
| 20260504025923 | 52 | 360 | 1.0 | 4.0 | 0.00 | 0.00 | 0.00 | 72 | 1007.6 |
| 20260504025425 | 52 | 360 | 2.0 | 5.0 | 0.00 | 0.00 | 0.00 | 73 | 1007.8 |
| 20260504024946 | 52 | 360 | 1.0 | 4.0 | 0.00 | 0.00 | 0.00 | 73 | 1007.7 |
| 20260504024421 | 52 | 360 | 0.0 | 4.0 | 0.00 | 0.00 | 0.00 | 74 | 1007.8 |
| 20260504023923 | 52 | 360 | 1.0 | 4.0 | 0.00 | 0.00 | 0.00 | 74 | 1007.8 |
| 20260504023424 | 52 | 360 | 2.0 | 4.0 | 0.00 | 0.00 | 0.00 | 75 | 1007.8 |
| 20260504022927 | 52 | 360 | 1.0 | 6.0 | 0.00 | 0.00 | 0.00 | 75 | 1007.8 |
| 20260504022422 | 52 | 360 | 0.0 | 6.0 | 0.00 | 0.00 | 0.00 | 76 | 1007.7 |
| 20260504021923 | 52 | 360 | 1.0 | 5.0 | 0.00 | 0.00 | 0.00 | 76 | 1007.6 |
| 20260504021424 | 52 | 360 | 1.0 | 5.0 | 0.00 | 0.00 | 0.00 | 76 | 1007.5 |
| 20260504020944 | 52 | 360 | 0.0 | 2.0 | 0.00 | 0.00 | 0.00 | 76 | 1007.5 |
| 20260504020425 | 52 | 360 | 0.0 | 5.0 | 0.00 | 0.00 | 0.00 | 76 | 1007.5 |
| 20260504015946 | 52 | 360 | 1.0 | 5.0 | 0.00 | 0.00 | 0.00 | 76 | 1007.5 |
| 20260504015426 | 53 | 360 | 0.0 | 1.0 | 0.00 | 0.00 | 0.00 | 75 | 1007.5 |
| 20260504014928 | 53 | 360 | 0.0 | 2.0 | 0.00 | 0.00 | 0.00 | 76 | 1007.5 |
| 20260504014430 | 53 | 360 | 0.0 | 4.0 | 0.00 | 0.00 | 0.00 | 75 | 1007.6 |
| 20260504013932 | 53 | 360 | 2.0 | 4.0 | 0.00 | 0.00 | 0.00 | 75 | 1007.6 |
| 20260504013415 | 53 | 360 | 1.0 | 4.0 | 0.00 | 0.00 | 0.00 | 75 | 1007.6 |
| 20260504012916 | 53 | 360 | 1.0 | 6.0 | 0.00 | 0.00 | 0.00 | 75 | 1007.6 |
| 20260504012438 | 53 | 360 | 2.0 | 6.0 | 0.00 | 0.00 | 0.00 | 75 | 1007.6 |
| 20260504011914 | 53 | 360 | 1.0 | 3.0 | 0.00 | 0.00 | 0.00 | 74 | 1007.6 |
| 20260504011416 | 53 | 360 | 0.0 | 3.0 | 0.00 | 0.00 | 0.00 | 74 | 1007.7 |
| 20260504010917 | 53 | 360 | 0.0 | 6.0 | 0.00 | 0.00 | 0.00 | 74 | 1007.7 |
| 20260504010440 | 54 | 360 | 1.0 | 6.0 | 0.00 | 0.00 | 0.00 | 74 | 1007.6 |
| 20260504005918 | 54 | 360 | 1.0 | 3.0 | 0.00 | 0.00 | 0.00 | 73 | 1007.7 |
| 20260504005418 | 54 | 360 | 1.0 | 4.0 | 0.00 | 0.00 | 0.00 | 73 | 1007.7 |
| 20260504004939 | 54 | 360 | 2.0 | 4.0 | 0.00 | 0.00 | 0.00 | 72 | 1007.8 |
| 20260504004417 | 54 | 360 | 1.0 | 3.0 | 0.00 | 0.00 | 0.00 | 72 | 1007.9 |
| 20260504003937 | 54 | 360 | 1.0 | 3.0 | 0.00 | 0.00 | 0.00 | 71 | 1007.8 |
| 20260504003416 | 54 | 360 | 1.0 | 3.0 | 0.00 | 0.00 | 0.00 | 71 | 1007.8 |
| 20260504002916 | 55 | 360 | 0.0 | 2.0 | 0.00 | 0.00 | 0.00 | 70 | 1007.8 |
| 20260504002415 | 55 | 360 | 0.0 | 12.0 | 0.00 | 0.00 | 0.00 | 70 | 1007.9 |
| 20260504001936 | 55 | 360 | 2.0 | 12.0 | 0.00 | 0.00 | 0.00 | 69 | 1007.8 |
| 20260504001415 | 55 | 360 | 2.0 | 8.0 | 0.00 | 0.00 | 0.00 | 69 | 1008.0 |
| 20260504000914 | 55 | 360 | 2.0 | 6.0 | 0.00 | 0.00 | 0.00 | 68 | 1007.9 |
| 20260504000416 | 55 | 360 | 2.0 | 9.0 | 0.00 | 0.00 | 0.00 | 68 | 1008.0 |
| 20260503235933 | 56 | 360 | 3.0 | 11.0 | 0.00 | 0.00 | 0.00 | 67 | 1008.0 |
| 20260503235431 | 56 | 360 | 0.0 | 12.0 | 0.00 | 0.00 | 0.00 | 67 | 1008.0 |
| 20260503234931 | 56 | 360 | 3.0 | 12.0 | 0.00 | 0.00 | 0.00 | 66 | 1008.1 |
| 20260503234430 | 56 | 360 | 2.0 | 10.0 | 0.00 | 0.00 | 0.00 | 66 | 1008.1 |
| 20260503233932 | 56 | 360 | 2.0 | 10.0 | 0.00 | 0.00 | 0.00 | 65 | 1008.0 |
| 20260503233432 | 56 | 360 | 2.0 | 10.0 | 0.00 | 0.00 | 0.00 | 65 | 1008.2 |
| 20260503232929 | 57 | 360 | 2.0 | 9.0 | 0.00 | 0.00 | 0.00 | 64 | 1008.2 |
| 20260503232429 | 57 | 360 | 3.0 | 11.0 | 0.00 | 0.00 | 0.00 | 64 | 1008.3 |
| 20260503231927 | 57 | 360 | 4.0 | 18.0 | 0.00 | 0.00 | 0.00 | 64 | 1008.5 |
| 20260503231448 | 56 | 360 | 2.0 | 18.0 | 0.00 | 0.00 | 0.00 | 64 | 1008.7 |
| 20260503230925 | 56 | 360 | 3.0 | 11.0 | 0.00 | 0.00 | 0.00 | 64 | 1008.7 |
| 20260503230424 | 57 | 360 | 7.0 | 11.0 | 0.00 | 0.00 | 0.00 | 63 | 1008.8 |
| 20260503225923 | 57 | 360 | 3.0 | 10.0 | 0.00 | 0.00 | 0.00 | 63 | 1008.8 |
| 20260503225442 | 57 | 360 | 1.0 | 9.0 | 0.00 | 0.00 | 0.00 | 64 | 1008.9 |
| 20260503224942 | 57 | 360 | 3.0 | 9.0 | 0.00 | 0.00 | 0.00 | 63 | 1008.9 |
| 20260503224419 | 57 | 360 | 2.0 | 8.0 | 0.00 | 0.00 | 0.00 | 63 | 1008.9 |
| 20260503223919 | 56 | 360 | 4.0 | 9.0 | 0.00 | 0.00 | 0.00 | 63 | 1009.1 |
| 20260503223417 | 56 | 360 | 3.0 | 8.0 | 0.00 | 0.00 | 0.00 | 63 | 1009.1 |
| 20260503222917 | 56 | 360 | 3.0 | 13.0 | 0.00 | 0.00 | 0.00 | 62 | 1009.2 |
| 20260503222417 | 56 | 360 | 6.0 | 11.0 | 0.00 | 0.00 | 0.00 | 62 | 1009.3 |
| 20260503221917 | 56 | 360 | 4.0 | 10.0 | 0.00 | 0.00 | 0.00 | 63 | 1009.4 |
| 20260503221436 | 56 | 360 | 2.0 | 9.0 | 0.00 | 0.00 | 0.00 | 64 | 1009.4 |
| 20260503220954 | 56 | 360 | 3.0 | 8.0 | 0.00 | 0.00 | 0.00 | 64 | 1009.6 |
| 20260503220454 | 56 | 360 | 3.0 | 12.0 | 0.00 | 0.00 | 0.00 | 65 | 1009.6 |
| 20260503215913 | 55 | 360 | 5.0 | 12.0 | 0.00 | 0.00 | 0.00 | 66 | 1009.7 |
| 20260503215413 | 55 | 360 | 3.0 | 9.0 | 0.00 | 0.00 | 0.00 | 67 | 1009.7 |
| 20260503214932 | 54 | 360 | 4.0 | 9.0 | 0.00 | 0.00 | 0.00 | 67 | 1009.7 |
| 20260503214415 | 54 | 360 | 3.0 | 8.0 | 0.00 | 0.00 | 0.00 | 68 | 1009.6 |
| 20260503213918 | 54 | 360 | 2.0 | 8.0 | 0.00 | 0.00 | 0.00 | 69 | 1009.7 |
| 20260503213422 | 53 | 360 | 2.0 | 6.0 | 0.00 | 0.00 | 0.00 | 68 | 1009.8 |
| 20260503212922 | 53 | 360 | 2.0 | 8.0 | 0.00 | 0.00 | 0.00 | 69 | 1009.9 |
| 20260503212423 | 53 | 360 | 1.0 | 9.0 | 0.00 | 0.00 | 0.00 | 69 | 1009.9 |
| 20260503211924 | 53 | 360 | 3.0 | 12.0 | 0.00 | 0.00 | 0.00 | 69 | 1010.0 |
| 20260503211424 | 53 | 360 | 3.0 | 12.0 | 0.00 | 0.00 | 0.00 | 69 | 1009.9 |
| 20260503210943 | 53 | 360 | 2.0 | 9.0 | 0.00 | 0.00 | 0.00 | 69 | 1010.1 |
| 20260503210421 | 52 | 360 | 1.0 | 9.0 | 0.00 | 0.00 | 0.00 | 69 | 1010.1 |
| 20260503205923 | 52 | 360 | 3.0 | 11.0 | 0.00 | 0.00 | 0.00 | 68 | 1010.2 |
| 20260503205424 | 52 | 360 | 3.0 | 11.0 | 0.00 | 0.00 | 0.00 | 68 | 1010.2 |
| 20260503204926 | 52 | 360 | 2.0 | 10.0 | 0.00 | 0.00 | 0.00 | 68 | 1010.4 |
| 20260503204424 | 52 | 360 | 3.0 | 10.0 | 0.00 | 0.00 | 0.00 | 68 | 1010.6 |
| 20260503203925 | 52 | 360 | 3.0 | 9.0 | 0.00 | 0.00 | 0.00 | 68 | 1010.7 |
| 20260503203423 | 52 | 360 | 3.0 | 10.0 | 0.00 | 0.00 | 0.00 | 68 | 1010.9 |
| 20260503202923 | 52 | 360 | 4.0 | 10.0 | 0.00 | 0.00 | 0.00 | 68 | 1010.8 |
| 20260503202423 | 52 | 360 | 2.0 | 11.0 | 0.00 | 0.00 | 0.00 | 68 | 1011.0 |
| 20260503201923 | 52 | 360 | 2.0 | 8.0 | 0.00 | 0.00 | 0.00 | 68 | 1011.0 |
| 20260503201425 | 52 | 360 | 2.0 | 12.0 | 0.00 | 0.00 | 0.00 | 68 | 1011.1 |
| 20260503200924 | 52 | 360 | 4.0 | 12.0 | 0.00 | 0.00 | 0.00 | 68 | 1011.3 |
| 20260503200425 | 52 | 360 | 4.0 | 19.0 | 0.00 | 0.00 | 0.00 | 68 | 1011.5 |
| 20260503195945 | 52 | 360 | 4.0 | 19.0 | 0.00 | 0.00 | 0.00 | 68 | 1011.8 |
| 20260503195426 | 52 | 360 | 5.0 | 12.0 | 0.00 | 0.00 | 0.00 | 67 | 1011.8 |
| 20260503194924 | 52 | 360 | 5.0 | 13.0 | 0.00 | 0.00 | 0.00 | 67 | 1012.0 |
| 20260503194423 | 52 | 360 | 5.0 | 13.0 | 0.00 | 0.00 | 0.00 | 67 | 1012.2 |
| 20260503193923 | 52 | 360 | 6.0 | 13.0 | 0.00 | 0.00 | 0.00 | 66 | 1012.3 |
| 20260503193422 | 52 | 360 | 4.0 | 13.0 | 0.00 | 0.00 | 0.00 | 66 | 1012.4 |
| 20260503192945 | 52 | 360 | 4.0 | 17.0 | 0.00 | 0.00 | 0.00 | 65 | 1012.4 |
| 20260503192443 | 53 | 360 | 4.0 | 17.0 | 0.00 | 0.00 | 0.00 | 65 | 1012.4 |
| 20260503191921 | 53 | 360 | 3.0 | 15.0 | 0.00 | 0.00 | 0.00 | 65 | 1012.4 |
| 20260503191419 | 53 | 360 | 8.0 | 15.0 | 0.00 | 0.00 | 0.00 | 64 | 1012.6 |
| 20260503190921 | 53 | 360 | 5.0 | 13.0 | 0.00 | 0.00 | 0.00 | 63 | 1012.7 |
| 20260503190420 | 54 | 360 | 5.0 | 15.0 | 0.00 | 0.00 | 0.00 | 62 | 1012.8 |
| 20260503185923 | 55 | 360 | 10.0 | 18.0 | 0.00 | 0.00 | 0.00 | 60 | 1012.8 |
| 20260503185421 | 55 | 360 | 8.0 | 18.0 | 0.00 | 0.00 | 0.00 | 57 | 1012.8 |
| 20260503184921 | 56 | 360 | 7.0 | 13.0 | 0.00 | 0.00 | 0.00 | 56 | 1012.7 |
| 20260503184437 | 57 | 360 | 4.0 | 15.0 | 0.00 | 0.00 | 0.00 | 54 | 1012.7 |
| 20260503183915 | 57 | 360 | 6.0 | 20.0 | 0.00 | 0.00 | 0.00 | 54 | 1012.7 |
| 20260503183415 | 58 | 360 | 10.0 | 16.0 | 0.00 | 0.00 | 0.00 | 53 | 1012.7 |
| 20260503182916 | 58 | 360 | 5.0 | 16.0 | 0.00 | 0.00 | 0.00 | 52 | 1012.6 |
| 20260503182415 | 59 | 360 | 7.0 | 16.0 | 0.00 | 0.00 | 0.00 | 51 | 1012.5 |
| 20260503181915 | 60 | 360 | 4.0 | 13.0 | 0.00 | 0.00 | 0.00 | 50 | 1012.5 |
| 20260503181437 | 60 | 360 | 5.0 | 16.0 | 0.00 | 0.00 | 0.00 | 49 | 1012.5 |
| 20260503180936 | 60 | 360 | 8.0 | 16.0 | 0.00 | 0.00 | 0.00 | 47 | 1012.5 |
| 20260503180456 | 60 | 360 | 6.0 | 15.0 | 0.00 | 0.00 | 0.00 | 48 | 1012.5 |
| 20260503175954 | 61 | 211 | 5.0 | 13.0 | 0.00 | 0.00 | 0.00 | 48 | 1012.5 |
| 20260503175414 | 60 | 227 | 6.0 | 14.0 | 0.00 | 0.00 | 0.00 | 47 | 1012.6 |
| 20260503174914 | 61 | 215 | 6.0 | 13.0 | 0.00 | 0.00 | 0.00 | 45 | 1012.6 |
| 20260503174414 | 61 | 360 | 4.0 | 9.0 | 0.00 | 0.00 | 0.00 | 46 | 1012.6 |
| 20260503173934 | 61 | 360 | 5.0 | 12.0 | 0.00 | 0.00 | 0.00 | 45 | 1012.7 |
| 20260503173454 | 61 | 360 | 4.0 | 11.0 | 0.00 | 0.00 | 0.00 | 47 | 1012.8 |
| 20260503172914 | 61 | 360 | 4.0 | 11.0 | 0.00 | 0.00 | 0.00 | 46 | 1012.8 |
| 20260503172414 | 61 | 209 | 4.0 | 13.0 | 0.00 | 0.00 | 0.00 | 47 | 1012.8 |
| 20260503171915 | 61 | 360 | 8.0 | 13.0 | 0.00 | 0.00 | 0.00 | 45 | 1013.0 |
| 20260503171415 | 61 | 360 | 8.0 | 15.0 | 0.00 | 0.00 | 0.00 | 45 | 1012.9 |
| 20260503170936 | 61 | 206 | 6.0 | 15.0 | 0.00 | 0.00 | 0.00 | 44 | 1013.1 |
| 20260503170436 | 61 | 229 | 7.0 | 15.0 | 0.00 | 0.00 | 0.00 | 44 | 1013.2 |
| 20260503150923 | 54 | 360 | 5.0 | 13.0 | 0.00 | 0.00 | 0.00 | 52 | 1014.3 |
| 20260503150421 | 54 | 360 | 6.0 | 13.0 | 0.00 | 0.00 | 0.00 | 51 | 1014.3 |
| 20260503130929 | 47 | 360 | 3.0 | 8.0 | 0.00 | 0.00 | 0.00 | 60 | 1015.0 |
| 20260503130429 | 47 | 360 | 2.0 | 8.0 | 0.00 | 0.00 | 0.00 | 61 | 1014.9 |
| 20260503110427 | 41 | 360 | 2.0 | 4.0 | 0.00 | 0.00 | 0.00 | 67 | 1014.8 |
| 20260503090447 | 41 | 360 | 0.0 | 3.0 | 0.00 | 0.00 | 0.00 | 65 | 1015.0 |
| 20260503081420 | 41 | 360 | 2.0 | 3.0 | 0.00 | 0.00 | 0.00 | 65 | 1015.0 |
| 20260503080919 | 41 | 360 | 2.0 | 4.0 | 0.00 | 0.00 | 0.00 | 66 | 1015.0 |
| 20260503080420 | 41 | 360 | 1.0 | 8.0 | 0.00 | 0.00 | 0.00 | 65 | 1015.0 |
| 20260503072914 | 40 | 360 | 1.0 | 3.0 | 0.00 | 0.00 | 0.00 | 67 | 1015.1 |
| 20260503072435 | 40 | 360 | 1.0 | 3.0 | 0.00 | 0.00 | 0.00 | 67 | 1015.1 |
| 20260503071932 | 40 | 360 | 1.0 | 3.0 | 0.00 | 0.00 | 0.00 | 68 | 1015.2 |
| 20260503071432 | 40 | 360 | 0.0 | 2.0 | 0.00 | 0.00 | 0.00 | 68 | 1015.3 |
| 20260503070952 | 39 | 360 | 1.0 | 3.0 | 0.00 | 0.00 | 0.00 | 69 | 1015.3 |
| 20260503070430 | 39 | 360 | 1.0 | 3.0 | 0.00 | 0.00 | 0.00 | 70 | 1015.3 |
| 20260503054926 | 38 | 360 | 0.0 | 0.0 | 0.00 | 0.00 | 0.00 | 75 | 1016.0 |